Location: Olsztyn
(53.7767°N, 20.4765°E)
Time: 17:45:42
(UTC+02:00)

A-11 Canister half - Pass Details

Date: 26 January 2022
Orbit: 1513 x 1686 km, 47.2° (Epoch: 24 May)

Event Time Altitude Azimuth Distance (km) Brightness Sun altitude
Rises 19:58:30 0° 270° (W) 4,708 12.6 -33.6°
Reaches altitude 10° 20:01:39 10° 267° (W) 3,707 11.7 -34.0°
Maximum altitude 20:10:36 55° 193° (SSW) 1,781 9.1 -35.3°
Enters shadow 20:10:44 55° 190° (S) 1,782 9.1 -35.3°
